TimeAKDT,TemperatureF,Dew PointF,Humidity,Sea Level PressureIn,VisibilityMPH,Wind Direction,Wind SpeedMPH,Gust SpeedMPH,PrecipitationIn,Events,Conditions,WindDirDegrees,DateUTC
12:16 AM,26.6,6.8,43,30.18,10.0,West,4.6,-,N/A,,Clear,280,2012-10-27 08:16:00
12:36 AM,24.8,8.6,50,30.19,10.0,West,3.5,-,N/A,,Clear,270,2012-10-27 08:36:00
12:56 AM,23.0,8.6,54,30.18,10.0,Calm,Calm,-,N/A,,Clear,0,2012-10-27 08:56:00
1:16 AM,26.6,10.4,51,30.18,8.0,Calm,Calm,-,N/A,,Clear,0,2012-10-27 09:16:00
1:36 AM,24.8,6.8,46,30.17,6.0,Calm,Calm,-,N/A,,Clear,0,2012-10-27 09:36:00
1:56 AM,23.0,5.0,46,30.18,7.0,WNW,3.5,-,N/A,,Clear,290,2012-10-27 09:56:00
2:16 AM,24.8,8.6,50,30.17,9.0,NE,3.5,-,N/A,,Clear,50,2012-10-27 10:16:00
2:36 AM,26.6,8.6,47,30.16,10.0,Calm,Calm,-,N/A,,Clear,0,2012-10-27 10:36:00
2:56 AM,26.6,8.6,47,30.15,10.0,ENE,6.9,-,N/A,,Clear,60,2012-10-27 10:56:00
3:16 AM,26.6,8.6,47,30.15,10.0,SE,8.1,-,N/A,,Clear,130,2012-10-27 11:16:00
3:36 AM,26.6,6.8,43,30.15,10.0,East,6.9,-,N/A,,Clear,100,2012-10-27 11:36:00
3:56 AM,26.6,6.8,43,30.14,10.0,Calm,Calm,-,N/A,,Clear,0,2012-10-27 11:56:00
4:16 AM,26.6,8.6,47,30.13,10.0,North,4.6,-,N/A,,Clear,350,2012-10-27 12:16:00
4:36 AM,28.4,8.6,43,30.13,10.0,ESE,9.2,-,N/A,,Clear,120,2012-10-27 12:36:00
5:16 AM,28.4,6.8,40,30.12,6.0,ENE,5.8,-,N/A,,Clear,60,2012-10-27 13:16:00
5:36 AM,28.4,5.0,37,30.11,7.0,NNE,3.5,-,N/A,,Clear,20,2012-10-27 13:36:00
5:56 AM,28.4,8.6,43,30.11,10.0,NNE,5.8,-,N/A,,Clear,20,2012-10-27 13:56:00
6:16 AM,28.4,8.6,43,30.11,10.0,ENE,5.8,-,N/A,,Clear,70,2012-10-27 14:16:00
6:36 AM,28.4,6.8,40,30.10,10.0,ENE,5.8,-,N/A,,Clear,60,2012-10-27 14:36:00
6:56 AM,28.4,6.8,40,30.09,10.0,ENE,9.2,-,N/A,,Clear,70,2012-10-27 14:56:00
7:16 AM,28.4,8.6,43,30.09,10.0,East,13.8,19.6,N/A,,Clear,100,2012-10-27 15:16:00
7:36 AM,28.4,8.6,43,30.10,10.0,East,10.4,17.3,N/A,,Clear,90,2012-10-27 15:36:00
7:56 AM,28.4,8.6,43,30.08,10.0,ENE,9.2,18.4,N/A,,Clear,60,2012-10-27 15:56:00
8:16 AM,28.4,8.6,43,30.08,10.0,East,9.2,17.3,N/A,,Clear,100,2012-10-27 16:16:00
8:36 AM,28.4,8.6,43,30.07,10.0,NNE,11.5,16.1,N/A,,Clear,30,2012-10-27 16:36:00
8:56 AM,28.4,8.6,43,30.07,10.0,ENE,11.5,19.6,N/A,,Clear,70,2012-10-27 16:56:00
9:16 AM,28.4,6.8,40,30.07,10.0,East,6.9,17.3,N/A,,Clear,100,2012-10-27 17:16:00
9:36 AM,28.4,8.6,43,30.07,10.0,Calm,Calm,-,N/A,,Clear,0,2012-10-27 17:36:00
9:56 AM,28.4,8.6,43,30.07,10.0,ENE,5.8,-,N/A,,Clear,70,2012-10-27 17:56:00
10:16 AM,30.2,10.4,44,30.07,10.0,East,4.6,-,N/A,,Clear,80,2012-10-27 18:16:00
10:36 AM,30.2,8.6,40,30.07,10.0,ESE,4.6,-,N/A,,Clear,110,2012-10-27 18:36:00
10:56 AM,30.2,8.6,40,30.07,10.0,Calm,Calm,-,N/A,,Clear,0,2012-10-27 18:56:00
11:16 AM,30.2,10.4,44,30.07,10.0,Calm,Calm,-,N/A,,Clear,0,2012-10-27 19:16:00
11:36 AM,30.2,10.4,44,30.06,10.0,ESE,5.8,-,N/A,,Clear,120,2012-10-27 19:36:00
11:56 AM,33.8,10.4,38,30.06,10.0,East,5.8,-,N/A,,Clear,100,2012-10-27 19:56:00
12:16 PM,33.8,10.4,38,30.05,10.0,Calm,Calm,-,N/A,,Clear,0,2012-10-27 20:16:00
12:36 PM,33.8,10.4,38,30.04,10.0,SSE,3.5,-,N/A,,Clear,160,2012-10-27 20:36:00
12:56 PM,33.8,12.2,41,30.04,10.0,Calm,Calm,-,N/A,,Clear,0,2012-10-27 20:56:00
1:16 PM,35.6,10.4,35,30.03,10.0,Calm,Calm,-,N/A,,Clear,0,2012-10-27 21:16:00
1:36 PM,35.6,12.2,38,30.03,10.0,SE,3.5,-,N/A,,Clear,140,2012-10-27 21:36:00
1:56 PM,37.4,12.2,36,30.03,10.0,ESE,4.6,-,N/A,,Clear,110,2012-10-27 21:56:00
2:16 PM,37.4,12.2,36,30.02,10.0,East,5.8,-,N/A,,Clear,90,2012-10-27 22:16:00
2:36 PM,37.4,14.0,38,30.01,10.0,Calm,Calm,-,N/A,,Clear,0,2012-10-27 22:36:00
2:56 PM,39.2,12.2,33,30.01,10.0,ESE,4.6,-,N/A,,Clear,120,2012-10-27 22:56:00
3:16 PM,37.4,14.0,38,30.00,10.0,ESE,4.6,-,N/A,,Clear,120,2012-10-27 23:16:00
3:36 PM,39.2,14.0,36,29.99,10.0,ESE,5.8,-,N/A,,Clear,120,2012-10-27 23:36:00
3:56 PM,39.2,14.0,36,29.98,10.0,SE,6.9,-,N/A,,Clear,140,2012-10-27 23:56:00
4:16 PM,39.2,14.0,36,29.98,10.0,ESE,9.2,-,N/A,,Clear,110,2012-10-28 00:16:00
4:36 PM,39.2,14.0,36,29.98,10.0,East,8.1,-,N/A,,Clear,80,2012-10-28 00:36:00
4:56 PM,39.2,12.2,33,29.98,10.0,NE,4.6,-,N/A,,Clear,40,2012-10-28 00:56:00
5:16 PM,37.4,14.0,38,29.97,10.0,Calm,Calm,-,N/A,,Clear,0,2012-10-28 01:16:00
5:36 PM,37.4,14.0,38,29.97,10.0,SE,4.6,-,N/A,,Clear,130,2012-10-28 01:36:00
5:56 PM,37.4,12.2,36,29.96,10.0,SSE,5.8,-,N/A,,Clear,160,2012-10-28 01:56:00
6:16 PM,35.6,12.2,38,29.96,10.0,ENE,6.9,20.7,N/A,,Clear,70,2012-10-28 02:16:00
6:36 PM,35.6,12.2,38,29.96,10.0,SSE,5.8,-,N/A,,Clear,160,2012-10-28 02:36:00
6:56 PM,35.6,14.0,41,29.97,10.0,ENE,5.8,-,N/A,,Clear,60,2012-10-28 02:56:00
7:16 PM,35.6,12.2,38,29.97,10.0,ENE,6.9,-,N/A,,Clear,60,2012-10-28 03:16:00
7:36 PM,35.6,14.0,41,29.96,10.0,NE,6.9,-,N/A,,Clear,50,2012-10-28 03:36:00
7:56 PM,35.6,12.2,38,29.96,10.0,NE,5.8,-,N/A,,Clear,50,2012-10-28 03:56:00
8:16 PM,35.6,12.2,38,29.96,10.0,East,3.5,-,N/A,,Clear,100,2012-10-28 04:16:00
8:36 PM,35.6,12.2,38,29.97,10.0,NNE,9.2,-,N/A,,Clear,20,2012-10-28 04:36:00
8:56 PM,35.6,12.2,38,29.97,10.0,Calm,Calm,-,N/A,,Clear,0,2012-10-28 04:56:00
9:16 PM,35.6,12.2,38,29.96,10.0,NE,9.2,-,N/A,,Clear,50,2012-10-28 05:16:00
9:36 PM,35.6,12.2,38,29.97,10.0,East,6.9,-,N/A,,Clear,80,2012-10-28 05:36:00
9:56 PM,35.6,12.2,38,29.96,10.0,ESE,13.8,18.4,N/A,,Clear,110,2012-10-28 05:56:00
10:16 PM,35.6,12.2,38,29.96,10.0,NE,8.1,-,N/A,,Clear,40,2012-10-28 06:16:00
10:36 PM,35.6,12.2,38,29.96,10.0,NE,4.6,-,N/A,,Clear,50,2012-10-28 06:36:00
10:56 PM,35.6,12.2,38,29.97,10.0,NNE,8.1,-,N/A,,Clear,30,2012-10-28 06:56:00
11:16 PM,35.6,12.2,38,29.97,10.0,ENE,5.8,-,N/A,,Clear,70,2012-10-28 07:16:00
11:36 PM,35.6,12.2,38,29.96,10.0,ENE,4.6,-,N/A,,Clear,60,2012-10-28 07:36:00
11:56 PM,35.6,12.2,38,29.96,10.0,SE,6.9,-,N/A,,Clear,140,2012-10-28 07:56:00